Regional Weather Roundup
Issued by NWS Midland/Odessa, TX

Skip options and go directly to product.
Home | Oldest Version | Previous Version | Current Version | All | Text Only | Save Text | Print | Product List | Glossary On

Skip product version selection by date and time.   
402
ASUS44 KMAF 230410
RWRMAF
MIDLAND AREA WEATHER ROUNDUP
NATIONAL WEATHER SERVICE MIDLAND TX
1100 PM CDT WED OCT 22 2014

...IN SOUTHWEST TEXAS AND SOUTHEAST NEW MEXICO...

CITY           SKY/WX    TMP DP  RH WIND       PRES   REMARKS
ALPINE         MOCLDY    61  58  89 SW5       30.24S
ANDREWS        FAIR      58  53  83 S6        30.14S
ARTESIA        NOT AVBL
BIG SPRING     PTCLDY    61  53  74 S10       30.16R
CARLSBAD       CLEAR     63  60  90 S8        30.11R
DRYDEN           N/A     60  57  89 NW3       30.14R
FORT STOCKTON  MOCLDY    63  59  87 SE12G21   30.12R
GUAD PASS      CLEAR     58  56  93 NE15      30.23R
HOBBS          CLEAR     57  57 100 SE6       30.15S
MARFA          PTCLDY    59  57  94 CALM      30.23R
MIDLAND AIRPK  CLEAR     61  54  76 SE9       30.14S
MIDLAND INTL   CLEAR     60  52  74 SE9       30.14R
ODESSA         CLEAR     61  52  72 SE10      30.14R
PECOS          PTCLDY    64  59  86 E8        30.09S
PRESIDIO       FAIR      68  60  75 CALM      30.10S
SEMINOLE       CLEAR     58  56  91 S7        30.15S
SNYDER         PTCLDY    60  57  89 S5        30.14R
WINK           CLEAR     62  55  77 SE9       30.10R
$$
...OTHER STATIONS IN TEXAS...

CITY           SKY/WX    TMP DP  RH WIND       PRES   REMARKS
ABILENE        CLEAR     63  55  75 SE8       30.12F
AMARILLO       CLOUDY    61  59  93 S15       30.13R
AUSTIN         CLOUDY    70  60  70 NE5       30.08F
BROWNSVILLE    CLEAR     74  69  85 NE6       30.03R
CORPUS CHRISTI MOCLDY    74  65  73 E9        30.06R
DALLAS FTW     CLOUDY    70  55  59 SE6       30.11S
DEL RIO        CLOUDY    66  64  93 W3        30.11R
EL PASO        CLEAR     67  55  65 N3        30.12R
HOUSTON INT    CLEAR     64  59  83 N3        30.10R
LUBBOCK        MOCLDY    61  57  87 S10       30.14S
SAN ANGELO     CLOUDY    63  57  81 SW7       30.13R
SAN ANTONIO    CLOUDY    75  57  53 E10       30.08S
WACO           CLOUDY    67  58  72 E5        30.11S
WICHITA FALLS  NOT AVBL
$$
...OTHER LOCATIONS IN NEW MEXICO...

CITY           SKY/WX    TMP DP  RH WIND       PRES   REMARKS
ALAMAGORDO     NOT AVBL
ALBUQUERQUE    CLEAR     59  40  49 S6        30.18R
CANNON AFB     CLEAR     58  56  93 S9        30.15R
CLOVIS         CLEAR     57  55  94 S12       30.17S
HOLLOMAN AFB   PTCLDY    60  51  74 E6        30.13R
ROSWELL        CLEAR     61  58  90 S7        30.11R
RUIDOSO        CLEAR     50  45  81 W6        30.28
SANTA FE       PTCLDY    51  38  60 CALM      30.21S
TRUTH OR CONSE PTCLDY    64  49  57 S3        30.16R
TUCUMCARI      CLEAR     62  54  74 S10       30.08R
$$

USA.gov is the U.S. government's official web portal to all federal, state and local government web resources and services.